[[{"header":{"parameterUnit":"m.s-1","parameterCategory":1,"la1":30.2991,"la2":30.254,"lo1":-89.0895,"lo2":-89.0444,"dy":0.0017,"dx":0.0017,"nx":28,"ny":28,"refTime":"2025-04-07T21:00:00:Z","depth":0,"parameterNumber":2,"parameterNumberName":"U-component_of_WINDS"},"data":[0,0,0,0,0,0,0,0,0,0,0,0,0,0,0,0,0,0,0,0,0,0,0,0,0,0,0,0,0,0,0,0,0,0,0,0,0,0,0,0,0,0,0,0,0,0,0,0,0,0,0,0,0,0,0,0,0,0,0.5425,0.5426,0,0.5482,0.5483,0.5483,0.5516,0.5516,0.5516,0.5516,0.5573,0.5575,0.5576,0,0,0,0,0,0,0,0,0,0,0,0,0,0.5346,0.5347,0.5425,0.5426,0.5427,0.5482,0.5483,0.5483,0.5516,0.5516,0.5516,0.5516,0.5573,0.5574,0.5576,0,0,0,0,0,0,0,0,0,0,0,0,0,0.5389,0.5347,0.5425,0.5449,0.5452,0.5482,0.5483,0.5484,0.5516,0.5516,0.5516,0.5516,0.5572,0.5574,0.5576,0.5586,0,0,0.5583,0.5584,0,0,0,0,0,0,0,0,0.5386,0.5392,0.5445,0.5448,0.5451,0.5492,0.5476,0.5518,0.5515,0.5491,0.5516,0.5516,0.5546,0.555,0.5561,0.5589,0.5591,0.5583,0.5584,0.5585,0.5586,0,0,0,0,0,0,0,0.5383,0.539,0.5448,0.5446,0.5449,0.5458,0.5464,0.5484,0.5517,0.5494,0.5496,0.5502,0.5548,0.5558,0.5562,0.5592,0.5583,0.5585,0.5586,0.5587,0.5633,0.5633,0,0,0,0,0,0,0.5377,0.5387,0.5446,0.5449,0.5419,0.5459,0.5466,0.5479,0.5517,0.5523,0.5502,0.5504,0.5555,0.556,0.5564,0.5579,0.5585,0.5587,0.5589,0.5633,0.5633,0.5633,0,0,0,0,0,0,0.5375,0.5381,0.5444,0.5419,0.5427,0.546,0.5474,0.548,0.549,0.5523,0.553,0.5507,0.5555,0.5561,0.5581,0.5582,0.5588,0.559,0.5633,0.5633,0.5633,0.5609,0,0,0,0,0,0,0.5372,0.5381,0.5384,0.5419,0.5429,0.5459,0.5474,0.5481,0.5494,0.5497,0.553,0.5535,0.5556,0.5578,0.5583,0.5585,0.5592,0.5633,0.5633,0.5633,0.5609,0.5608,0.5606,0,0,0,0,0,0.5369,0.5375,0.5384,0.5391,0.5434,0.5459,0.5465,0.5488,0.5494,0.5498,0.552,0.5534,0.5581,0.5579,0.5586,0.5588,0.5633,0.5633,0.5633,0.561,0.5608,0.5606,0,0,0,0,0,0,0.5339,0.538,0.5391,0.5407,0.543,0.5464,0.547,0.5485,0.5506,0.5507,0.5535,0.5543,0.556,0.5576,0.5573,0.56,0.5609,0.561,0.5589,0.5587,0.5586,0.5581,0.5594,0,0,0,0,0,0.5334,0.5351,0.5386,0.5397,0.5408,0.5437,0.5449,0.5465,0.5489,0.5499,0.5522,0.5544,0.5564,0.5577,0.5597,0.5612,0.562,0.5617,0.5615,0.5614,0.5614,0.5625,0.5624,0.5632,0.5632,0.5632,0,0,0.5325,0.5349,0.5358,0.5392,0.5411,0.5428,0.5445,0.5462,0.5475,0.5501,0.5522,0.5539,0.5566,0.5584,0.5593,0.5598,0.5614,0.5614,0.5612,0.5614,0.5625,0.5624,0.5623,0.5632,0.5632,0.5632,0,0,0.5316,0.5336,0.5348,0.5367,0.5396,0.5416,0.5419,0.5452,0.5465,0.5486,0.5506,0.5523,0.5556,0.5575,0.5589,0.5589,0.5604,0.5595,0.5586,0.5596,0.5596,0.5595,0.5596,0.5596,0.5596,0.5596,0.5596,0,0.53,0.5327,0.5353,0.5369,0.5384,0.5409,0.5422,0.544,0.5473,0.5483,0.5489,0.5532,0.5552,0.5575,0.5576,0.5586,0.5591,0.5591,0.5594,0.5594,0.5594,0.5595,0.5595,0.5594,0.5595,0.5595,0.5595,0,0.5307,0.5325,0.5332,0.5365,0.538,0.5395,0.5423,0.5436,0.5451,0.5471,0.5492,0.5517,0.5544,0.555,0.5565,0.5576,0.5579,0.5588,0.5597,0.5591,0.5593,0.5594,0.5593,0.5593,0.5593,0.5594,0,0,0.528,0.5328,0.533,0.5346,0.5381,0.5395,0.5412,0.5438,0.5449,0.5471,0.5486,0.5515,0.5525,0.554,0.5558,0.5567,0.5567,0.5576,0.5577,0.5574,0.5582,0.5574,0.5575,0.5577,0.5577,0.5577,0.558,0,0.5277,0.5308,0.5332,0.5353,0.5371,0.5396,0.5411,0.5434,0.5452,0.5471,0.5491,0.5512,0.5522,0.5532,0.5542,0.5564,0.5569,0.5565,0.5591,0.5592,0.5584,0.5575,0.5567,0.5569,0.5581,0.5581,0.5581,0,0.5277,0.53,0.5324,0.5358,0.5366,0.5379,0.5406,0.5422,0.5449,0.5463,0.5481,0.5499,0.5518,0.5526,0.5553,0.5549,0.5562,0.5574,0.5575,0.5579,0.5586,0.5579,0.557,0.557,0.5582,0.5582,0.5582,0,0.5257,0.5293,0.5312,0.5325,0.5365,0.5373,0.539,0.5418,0.5432,0.5456,0.5466,0.5491,0.5504,0.5524,0.5549,0.5551,0.5573,0.5582,0.5585,0.5585,0.5589,0.5588,0.5582,0.5596,0.5596,0.5596,0.5596,0,0.5251,0.5264,0.5304,0.5315,0.5332,0.536,0.5375,0.5395,0.5419,0.5435,0.5458,0.5473,0.5505,0.5524,0.5543,0.5563,0.5569,0.5581,0.5586,0.5579,0.5578,0.5588,0.5588,0.5596,0.5596,0.5596,0.5596,0,0.523,0.5257,0.528,0.5316,0.5326,0.5336,0.5368,0.538,0.5401,0.5421,0.5428,0.546,0.5484,0.5511,0.5543,0.5556,0.5575,0.5582,0.5566,0.5569,0.5571,0.557,0.5571,0.5572,0.5585,0.5584,0.5584,0,0.5225,0.5236,0.5274,0.5287,0.5304,0.5324,0.5339,0.5368,0.5383,0.5415,0.5424,0.545,0.5472,0.5508,0.5535,0.556,0.5568,0.5567,0.5572,0.5565,0.5569,0.5568,0.557,0.5565,0.5565,0.5565,0.5564,0,0.5213,0.5226,0.5248,0.5274,0.5292,0.5314,0.5337,0.5346,0.5379,0.5395,0.542,0.5437,0.5471,0.5496,0.5525,0.5543,0.5559,0.5563,0.5565,0.5558,0.5548,0.5554,0.5562,0.5562,0.5563,0.5563,0.5563,0.5563,0.5201,0.5213,0.5241,0.5265,0.5285,0.5307,0.5321,0.5344,0.5365,0.5395,0.541,0.5435,0.5463,0.5504,0.5521,0.5541,0.5547,0.5549,0.555,0.5551,0.5549,0.5545,0.5546,0.5546,0.5547,0.5547,0.5547,0,0.5191,0.5211,0.5233,0.5264,0.5283,0.5298,0.5324,0.5339,0.5361,0.5385,0.5407,0.5436,0.5461,0.549,0.5517,0.5527,0.5536,0.5534,0.5533,0.5537,0.5542,0.5538,0.5527,0.5527,0.5527,0.5527,0.5527,0.5527,0.5188,0.5209,0.5226,0.5257,0.5278,0.5302,0.5316,0.5337,0.5357,0.5388,0.5409,0.5428,0.5455,0.5484,0.5508,0.5516,0.5525,0.5521,0.5531,0.5535,0.5537,0.5538,0.5535,0.5523,0.5523,0.5525,0.5525,0.5525]},{"header":{"parameterUnit":"m.s-1","parameterCategory":1,"la1":30.2991,"la2":30.254,"lo1":-89.0895,"lo2":-89.0444,"dy":0.0017,"dx":0.0017,"nx":28,"ny":28,"refTime":"2025-04-07T21:00:00:Z","depth":0,"parameterNumber":3,"parameterNumberName":"V-component_of_WINDS"},"data":[0,0,0,0,0,0,0,0,0,0,0,0,0,0,0,0,0,0,0,0,0,0,0,0,0,0,0,0,0,0,0,0,0,0,0,0,0,0,0,0,0,0,0,0,0,0,0,0,0,0,0,0,0,0,0,0,0,0,-4.0459,-4.0459,0,-4.0491,-4.0491,-4.0491,-4.0496,-4.0496,-4.0495,-4.0495,-4.0524,-4.0525,-4.0526,0,0,0,0,0,0,0,0,0,0,0,0,0,-4.0401,-4.0402,-4.0459,-4.0459,-4.046,-4.0491,-4.0491,-4.0492,-4.0496,-4.0496,-4.0495,-4.0495,-4.0524,-4.0525,-4.0527,0,0,0,0,0,0,0,0,0,0,0,0,0,-4.0428,-4.0402,-4.0459,-4.0466,-4.0467,-4.0491,-4.0491,-4.0492,-4.0496,-4.0496,-4.0495,-4.0495,-4.0524,-4.0525,-4.0527,-4.0545,0,0,-4.0531,-4.0532,0,0,0,0,0,0,0,0,-4.0427,-4.0431,-4.0464,-4.0465,-4.0467,-4.0489,-4.0481,-4.0509,-4.0496,-4.0485,-4.0495,-4.0495,-4.0513,-4.0515,-4.0522,-4.0546,-4.0547,-4.0532,-4.0533,-4.0533,-4.0534,0,0,0,0,0,0,0,-4.0425,-4.0429,-4.0471,-4.0465,-4.0466,-4.0467,-4.047,-4.0487,-4.0501,-4.0486,-4.0486,-4.049,-4.0513,-4.052,-4.0523,-4.0548,-4.0532,-4.0533,-4.0534,-4.0535,-4.0591,-4.0592,0,0,0,0,0,0,-4.0422,-4.0428,-4.047,-4.0472,-4.0445,-4.0468,-4.0472,-4.0482,-4.0501,-4.0503,-4.049,-4.049,-4.0518,-4.0521,-4.0524,-4.0548,-4.0533,-4.0535,-4.0536,-4.059,-4.0591,-4.0592,0,0,0,0,0,0,-4.0421,-4.0426,-4.0469,-4.045,-4.0456,-4.047,-4.0481,-4.0483,-4.049,-4.0504,-4.0506,-4.0495,-4.0518,-4.0522,-4.054,-4.0549,-4.0535,-4.0537,-4.059,-4.0591,-4.0591,-4.0595,0,0,0,0,0,0,-4.0419,-4.0425,-4.0433,-4.045,-4.0457,-4.0486,-4.0481,-4.0484,-4.0493,-4.0493,-4.0509,-4.0512,-4.0518,-4.0538,-4.0542,-4.0551,-4.0538,-4.0589,-4.059,-4.0591,-4.0594,-4.0596,-4.0597,0,0,0,0,0,-4.0417,-4.0431,-4.0433,-4.0438,-4.0466,-4.0486,-4.049,-4.0498,-4.0494,-4.0501,-4.0511,-4.0511,-4.0547,-4.054,-4.0544,-4.0554,-4.0589,-4.059,-4.0591,-4.0594,-4.0596,-4.0597,0,0,0,0,0,0,-4.0412,-4.0433,-4.0436,-4.0456,-4.047,-4.0487,-4.0496,-4.0499,-4.0513,-4.0512,-4.052,-4.0524,-4.0543,-4.055,-4.0541,-4.0573,-4.0568,-4.057,-4.0568,-4.057,-4.0572,-4.0569,-4.0539,0,0,0,0,0,-4.0414,-4.0429,-4.0446,-4.0463,-4.0469,-4.0482,-4.0491,-4.0496,-4.051,-4.0515,-4.0525,-4.0538,-4.0552,-4.0561,-4.0575,-4.0595,-4.06,-4.0604,-4.0606,-4.0607,-4.0609,-4.0622,-4.0625,-4.0596,-4.0596,-4.0596,0,0,-4.0416,-4.043,-4.0439,-4.0462,-4.0473,-4.0489,-4.0486,-4.0502,-4.0514,-4.0517,-4.0536,-4.0544,-4.0559,-4.0579,-4.0588,-4.0586,-4.0618,-4.0609,-4.061,-4.0611,-4.0623,-4.0626,-4.0629,-4.0597,-4.0597,-4.0596,0,0,-4.043,-4.0441,-4.0457,-4.0469,-4.0486,-4.0495,-4.0499,-4.0516,-4.0523,-4.0542,-4.0546,-4.0559,-4.0583,-4.0595,-4.0603,-4.0624,-4.0625,-4.0628,-4.0636,-4.0648,-4.0651,-4.0653,-4.0661,-4.0664,-4.0629,-4.0629,-4.0629,0,-4.043,-4.0455,-4.0464,-4.0481,-4.0492,-4.0497,-4.0514,-4.0524,-4.0545,-4.0552,-4.0549,-4.0582,-4.0591,-4.0615,-4.0621,-4.0627,-4.0632,-4.0626,-4.065,-4.0652,-4.0654,-4.0662,-4.0665,-4.063,-4.063,-4.063,-4.063,0,-4.0455,-4.0472,-4.0483,-4.0505,-4.0517,-4.0533,-4.0545,-4.0556,-4.0561,-4.057,-4.0591,-4.0603,-4.0621,-4.0627,-4.063,-4.0652,-4.065,-4.0648,-4.0643,-4.0657,-4.0665,-4.0668,-4.063,-4.063,-4.063,-4.063,0,0,-4.0464,-4.0494,-4.0498,-4.0509,-4.053,-4.0543,-4.056,-4.0579,-4.0589,-4.0603,-4.0618,-4.064,-4.0639,-4.0649,-4.0654,-4.0665,-4.0683,-4.0663,-4.0663,-4.0667,-4.0708,-4.071,-4.0713,-4.0684,-4.0684,-4.0685,-4.0708,0,-4.0481,-4.0513,-4.0524,-4.055,-4.0566,-4.0573,-4.0588,-4.0603,-4.0612,-4.0627,-4.0637,-4.0653,-4.065,-4.0657,-4.0668,-4.0678,-4.0691,-4.0677,-4.0698,-4.0698,-4.0695,-4.0717,-4.0719,-4.0739,-4.0711,-4.0711,-4.0711,0,-4.0504,-4.0521,-4.055,-4.0571,-4.0579,-4.0592,-4.0612,-4.0626,-4.0643,-4.0649,-4.0661,-4.0666,-4.0685,-4.0678,-4.0704,-4.0694,-4.0703,-4.071,-4.0711,-4.0714,-4.0706,-4.0721,-4.0746,-4.0749,-4.0716,-4.0716,-4.0715,0,-4.0509,-4.0539,-4.0561,-4.057,-4.0595,-4.0605,-4.0616,-4.0633,-4.0644,-4.0661,-4.0669,-4.0686,-4.0696,-4.071,-4.072,-4.0714,-4.0745,-4.0739,-4.0751,-4.0751,-4.0757,-4.0757,-4.0785,-4.0762,-4.0762,-4.0762,-4.0762,0,-4.0526,-4.0544,-4.0565,-4.0578,-4.0598,-4.061,-4.063,-4.0641,-4.0656,-4.0672,-4.0678,-4.0692,-4.0705,-4.0721,-4.0728,-4.0749,-4.0753,-4.0759,-4.0761,-4.0759,-4.0758,-4.0765,-4.0764,-4.0763,-4.0763,-4.0763,-4.0762,0,-4.0535,-4.055,-4.0574,-4.0597,-4.0604,-4.0618,-4.0637,-4.065,-4.0661,-4.0681,-4.0686,-4.0702,-4.0722,-4.0733,-4.0757,-4.0762,-4.0786,-4.0787,-4.0781,-4.0782,-4.0793,-4.0793,-4.0827,-4.0833,-4.0806,-4.0806,-4.0806,0,-4.0545,-4.056,-4.0585,-4.0597,-4.0609,-4.0627,-4.064,-4.0653,-4.0666,-4.0688,-4.0699,-4.0719,-4.0736,-4.0767,-4.078,-4.0799,-4.0801,-4.0812,-4.0803,-4.0802,-4.0802,-4.0802,-4.0804,-4.0813,-4.0813,-4.0813,-4.0814,0,-4.0563,-4.057,-4.0589,-4.0611,-4.0626,-4.0644,-4.0661,-4.067,-4.0686,-4.07,-4.0721,-4.0735,-4.0761,-4.0781,-4.0802,-4.0812,-4.0816,-4.0816,-4.082,-4.0818,-4.0815,-4.0818,-4.0785,-4.0815,-4.0815,-4.0815,-4.0815,-4.0815,-4.0573,-4.0587,-4.0608,-4.0629,-4.0645,-4.0661,-4.0676,-4.069,-4.0708,-4.0731,-4.0738,-4.076,-4.0779,-4.0807,-4.0818,-4.0836,-4.0834,-4.0839,-4.0841,-4.0842,-4.0843,-4.0812,-4.0839,-4.0839,-4.0839,-4.0839,-4.0839,0,-4.0591,-4.0606,-4.0626,-4.0652,-4.0669,-4.0673,-4.0693,-4.0706,-4.0727,-4.0744,-4.0762,-4.0787,-4.0808,-4.0824,-4.0845,-4.0856,-4.0858,-4.0861,-4.0861,-4.0863,-4.0843,-4.0838,-4.0859,-4.0859,-4.0859,-4.0859,-4.0859,-4.0859,-4.0603,-4.0628,-4.0638,-4.067,-4.0685,-4.0708,-4.072,-4.0735,-4.075,-4.0779,-4.0797,-4.0808,-4.0825,-4.0848,-4.0867,-4.0871,-4.0879,-4.0882,-4.0886,-4.0867,-4.0864,-4.0862,-4.0858,-4.0883,-4.0883,-4.0906,-4.0906,-4.0906]}]]